GW3620 Weather Reports


Display with metric or nautical units.
time (UTC)temp
F
wind
direction
speed
MPH
gust
MPH
rain 1hr
in
rain 24hr
in
rain mn
in
humidity
%
barometer
mb
20260831053106 85 0 0.0 0.0 0.00 0.00 0.12 45 1013.7
20260831052032 85 0 0.0 0.0 0.00 0.00 0.12 45 1013.7
20260831051032 85 0 0.0 0.0 0.00 0.00 0.12 45 1013.7
20260831050029 86 0 0.0 0.0 0.00 0.00 0.12 44 1014.0
20260831045031 86 0 0.0 0.0 0.00 0.00 0.12 44 1014.0
20260831044106 86 0 0.0 0.0 0.00 0.00 0.12 43 1013.8
20260831043032 87 0 0.0 0.0 0.00 0.00 0.12 42 1013.9
20260831042049 87 0 0.0 0.0 0.00 0.00 0.12 41 1013.9
20260831041055 87 335 0.0 1.0 0.00 0.00 0.12 41 1014.0
20260831040031 87 339 0.0 3.0 0.00 0.00 0.12 41 1013.7
20260831035047 88 27 1.0 6.0 0.00 0.00 0.12 40 1013.7
20260831034031 88 274 3.0 9.0 0.00 0.00 0.12 39 1013.3
20260831033032 88 283 5.0 9.0 0.00 0.00 0.12 39 1013.2
20260831032032 88 273 8.0 12.0 0.00 0.00 0.12 38 1013.2
20260831031032 89 285 7.0 16.0 0.00 0.00 0.12 37 1013.2
20260831030032 89 271 10.0 18.0 0.00 0.00 0.12 38 1012.8
20260831025032 90 83 9.0 15.0 0.00 0.00 0.12 37 1012.8
20260831024030 91 284 8.0 18.0 0.00 0.00 0.12 37 1012.2
20260831023049 92 282 7.0 18.0 0.00 0.00 0.12 36 1011.6
20260831022031 93 276 5.0 9.0 0.00 0.00 0.12 35 1011.6
20260831021032 93 285 1.0 6.0 0.00 0.00 0.12 34 1011.5
20260831020031 93 275 0.0 3.0 0.00 0.00 0.12 34 1011.5
20260831015032 94 277 1.0 7.0 0.00 0.00 0.12 34 1011.5
20260831014032 94 0 0.0 0.0 0.00 0.00 0.12 34 1011.5
20260831013030 94 283 2.0 6.0 0.00 0.00 0.12 33 1011.3
20260831012049 95 285 1.0 3.0 0.00 0.00 0.12 32 1011.3
20260831011031 95 288 2.0 7.0 0.00 0.00 0.12 32 1011.4
20260831010032 95 285 2.0 6.0 0.00 0.00 0.12 31 1011.3
20260831004049 97 277 4.0 9.0 0.00 0.00 0.12 30 1011.3
20260831003032 97 72 2.0 9.0 0.00 0.00 0.12 29 1011.1
20260831002047 98 288 0.0 3.0 0.00 0.00 0.12 29 1011.1
20260831001032 99 274 3.0 7.0 0.00 0.00 0.12 28 1011.3
20260831000032 99 280 2.0 7.0 0.00 0.00 0.12 28 1011.3
20260830235032 99 80 2.0 7.0 0.00 0.00 0.12 28 1011.3
20260830234032 99 89 4.0 9.0 0.00 0.00 0.12 28 1011.3
20260830233032 99 72 4.0 12.0 0.00 0.00 0.12 28 1011.4
20260830232030 99 80 4.0 10.0 0.00 0.00 0.12 28 1011.4
20260830231032 100 88 4.0 15.0 0.00 0.00 0.12 28 1011.0
20260830230032 100 273 5.0 12.0 0.00 0.00 0.12 28 1011.1
20260830225032 100 342 0.0 3.0 0.00 0.00 0.12 28 1011.1
20260830224032 100 0 0.0 0.0 0.00 0.00 0.12 28 1011.3
20260830223032 99 71 1.0 9.0 0.00 0.00 0.12 29 1011.7
20260830222032 99 280 4.0 12.0 0.00 0.00 0.12 29 1011.7
20260830221032 99 77 6.0 15.0 0.00 0.00 0.12 29 1012.0
20260830220029 99 84 0.0 4.0 0.00 0.00 0.12 30 1012.4
20260830215032 99 290 2.0 13.0 0.00 0.00 0.12 30 1012.4
20260830214031 99 17 0.0 1.0 0.00 0.00 0.12 30 1012.6
20260830213032 99 44 0.0 1.0 0.00 0.00 0.12 30 1012.8
20260830212048 99 298 1.0 7.0 0.00 0.00 0.12 30 1012.8
20260830211031 98 75 7.0 12.0 0.00 0.00 0.12 30 1013.2
20260830210029 99 84 1.0 7.0 0.00 0.00 0.12 30 1013.6
20260830205030 99 307 1.0 7.0 0.00 0.00 0.12 30 1013.6
20260830204031 98 1 0.0 7.0 0.00 0.00 0.12 31 1013.8
20260830203032 98 39 1.0 7.0 0.00 0.00 0.12 31 1014.3
20260830202049 97 71 2.0 10.0 0.00 0.00 0.12 31 1014.3
20260830201032 97 11 0.0 6.0 0.00 0.00 0.12 31 1014.3
20260830200031 97 290 0.0 7.0 0.00 0.00 0.12 32 1014.5
20260830195032 96 78 3.0 9.0 0.00 0.00 0.12 32 1014.5
20260830194030 96 344 1.0 7.0 0.00 0.00 0.12 31 1015.0
20260830193049 96 271 4.0 9.0 0.00 0.00 0.12 32 1015.1
20260830192049 96 72 2.0 7.0 0.00 0.00 0.12 33 1015.1
20260830191031 96 283 0.0 7.0 0.00 0.00 0.12 33 1015.1
20260830190032 95 88 1.0 9.0 0.00 0.00 0.12 34 1015.5
20260830185032 94 285 1.0 7.0 0.00 0.00 0.12 34 1015.5
20260830184030 94 32 0.0 3.0 0.00 0.00 0.12 35 1015.6
20260830183032 93 284 2.0 7.0 0.00 0.00 0.12 36 1016.0
20260830182032 93 272 2.0 10.0 0.00 0.00 0.12 37 1016.0
20260830181049 92 272 2.0 9.0 0.00 0.00 0.12 36 1016.3
20260830180032 92 84 2.0 7.0 0.00 0.00 0.12 37 1016.5
20260830175032 92 352 0.0 6.0 0.00 0.00 0.12 37 1016.5
20260830174031 92 350 0.0 3.0 0.00 0.00 0.12 37 1016.6
20260830173030 91 12 1.0 9.0 0.00 0.00 0.12 39 1016.6
20260830172049 91 341 0.0 4.0 0.00 0.00 0.12 40 1016.6
20260830171032 90 38 1.0 4.0 0.00 0.00 0.12 41 1016.7
20260830170032 90 352 0.0 3.0 0.00 0.00 0.12 42 1017.0
20260830165032 89 344 2.0 9.0 0.00 0.00 0.12 44 1017.0
20260830164032 89 44 1.0 4.0 0.00 0.00 0.12 45 1016.9
20260830163032 88 36 1.0 7.0 0.00 0.00 0.12 47 1017.3
20260830162030 87 85 0.0 4.0 0.00 0.00 0.12 49 1017.3
20260830161030 87 38 2.0 7.0 0.00 0.00 0.12 49 1017.2
20260830160049 87 340 0.0 3.0 0.00 0.00 0.12 49 1017.3
20260830155030 86 298 1.0 4.0 0.00 0.00 0.12 51 1017.3
20260830154032 86 302 0.0 6.0 0.00 0.00 0.12 53 1017.3
20260830153031 85 89 0.0 1.0 0.00 0.00 0.12 55 1017.2
20260830152032 84 277 0.0 3.0 0.00 0.00 0.12 56 1017.2
20260830151030 83 321 0.0 3.0 0.00 0.00 0.12 57 1017.0
20260830150031 82 323 0.0 4.0 0.00 0.00 0.12 59 1016.9
20260830145032 81 323 0.0 3.0 0.00 0.00 0.12 60 1016.9
20260830144032 81 339 0.0 3.0 0.00 0.00 0.12 59 1017.3
20260830143106 80 335 1.0 6.0 0.00 0.00 0.12 59 1017.5
20260830142031 80 0 1.0 6.0 0.00 0.00 0.12 59 1017.5
20260830141048 79 11 3.0 7.0 0.00 0.00 0.12 60 1017.3
20260830140032 79 329 1.0 6.0 0.00 0.00 0.12 62 1017.3
20260830135032 78 336 2.0 6.0 0.00 0.00 0.12 63 1017.3
20260830134031 78 343 0.0 4.0 0.00 0.00 0.12 63 1017.1
20260830133032 78 336 0.0 4.0 0.00 0.00 0.12 62 1017.1
20260830132032 78 326 2.0 6.0 0.00 0.00 0.12 63 1017.1
20260830131031 77 318 4.0 9.0 0.00 0.00 0.12 66 1016.7
20260830130047 76 350 4.0 7.0 0.00 0.00 0.12 70 1016.8
20260830125032 76 356 1.0 10.0 0.00 0.00 0.12 78 1016.8
20260830124032 75 19 0.0 1.0 0.00 0.00 0.12 78 1016.5
20260830123031 75 10 0.0 3.0 0.00 0.00 0.12 79 1016.4
20260830122032 76 345 0.0 3.0 0.00 0.00 0.12 76 1016.4
20260830121031 77 317 0.0 3.0 0.04 0.00 0.12 71 1016.0
20260830120032 79 320 2.0 9.0 0.12 0.00 0.12 64 1015.6
20260830115032 83 322 5.0 15.0 0.73 0.00 0.08 52 1015.6
20260830114104 85 15 2.0 9.0 0.00 0.00 0.01 43 1015.7
20260830113031 85 55 4.0 10.0 0.00 0.00 0.00 43 1014.1
20260830112032 85 4 6.0 19.0 0.00 0.00 0.00 43 1014.1
20260830111031 84 327 5.0 10.0 0.00 0.00 0.00 45 1013.8
20260830110049 84 341 5.0 12.0 0.00 0.00 0.00 45 1014.0
20260830105049 83 326 4.0 12.0 0.00 0.00 0.00 48 1014.0
20260830104029 82 277 0.0 1.0 0.00 0.00 0.00 50 1014.1
20260830103030 82 318 0.0 4.0 0.00 0.00 0.00 49 1013.7
20260830102049 83 285 0.0 3.0 0.00 0.00 0.00 48 1013.7
20260830101049 83 308 0.0 6.0 0.00 0.00 0.00 48 1013.2
20260830100032 84 72 1.0 7.0 0.00 0.00 0.00 46 1013.1
20260830095031 84 325 2.0 9.0 0.00 0.00 0.00 45 1013.1
20260830094032 83 358 2.0 7.0 0.00 0.00 0.00 46 1013.2
20260830093030 82 65 5.0 12.0 0.00 0.00 0.00 48 1013.2
20260830092031 82 278 2.0 9.0 0.00 0.00 0.00 48 1013.2
20260830091032 82 42 0.0 1.0 0.00 0.00 0.00 48 1013.2
20260830090031 82 14 0.0 4.0 0.00 0.00 0.00 47 1013.3
20260830085032 82 330 0.0 3.0 0.00 0.00 0.00 46 1013.3
20260830084032 83 329 0.0 1.0 0.00 0.00 0.00 45 1013.4
20260830083032 83 0 0.0 0.0 0.00 0.00 0.00 45 1013.3
20260830082029 83 0 0.0 0.0 0.00 0.00 0.00 45 1013.3
20260830081031 83 0 0.0 0.0 0.00 0.00 0.00 45 1013.5
20260830080031 83 338 0.0 1.0 0.00 0.00 0.00 45 1013.5
20260830075031 83 55 1.0 9.0 0.00 0.00 0.00 46 1013.5
20260830074032 83 23 1.0 4.0 0.00 0.00 0.00 47 1013.4
20260830073031 83 337 1.0 4.0 0.00 0.00 0.00 49 1013.4
20260830072029 84 14 2.0 7.0 0.00 0.00 0.00 48 1013.4
20260830071029 84 21 6.0 9.0 0.00 0.00 0.00 47 1012.9
20260830070032 85 12 5.0 15.0 0.00 0.00 0.00 45 1012.8
20260830065032 85 349 8.0 15.0 0.00 0.00 0.00 44 1012.8
20260830064032 85 26 0.0 3.0 0.00 0.00 0.00 45 1012.9
20260830063031 84 7 3.0 12.0 0.00 0.00 0.00 47 1012.9
20260830062032 84 17 2.0 6.0 0.00 0.00 0.00 48 1012.9
20260830061032 83 20 3.0 9.0 0.00 0.00 0.00 50 1013.1
20260830060029 83 51 2.0 6.0 0.00 0.00 0.00 51 1013.0
20260830055032 82 38 4.0 9.0 0.00 0.00 0.00 52 1013.0